Wind_Speed
55 52 49 45 41 39 38 37 35 35 32 37 35 31 31 34 29 28 26 26 27 30 31 30 28 28 24 20 21 19 20 20 19 16 14 13 12 10 8 8 10 11 13 16 18 19 21 22 22
58 56 53 48 39 39 41 37 38 37 36 36 35 31 34 35 35 33 32 30 30 31 33 31 29 27 23 21 21 21 22 21 20 18 18 18 16 15 14 15 16 17 19 21 22 24 25 26 27
64 59 56 51 43 38 44 40 40 41 41 39 35 34 33 33 33 33 30 30 30 33 34 31 31 27 22 20 24 23 24 23 21 21 20 21 19 18 19 19 21 22 25 28 30 31 31 32 33
69 64 56 52 46 44 44 45 41 42 42 40 36 38 35 34 36 33 31 31 33 34 33 32 30 26 18 20 24 27 25 25 24 24 23 23 23 23 24 26 28 29 31 33 35 36 35 36 38
75 67 59 52 50 51 46 42 47 46 43 40 39 40 40 38 38 34 33 34 36 37 33 32 26 20 20 24 28 27 28 27 27 28 28 29 29 30 32 34 35 36 38 39 40 40 41 42 44
77 71 60 55 58 57 50 45 41 44 46 45 44 42 42 42 41 38 37 37 37 36 31 29 28 26 26 26 31 28 30 30 30 32 33 34 35 37 38 39 41 42 43 43 45 45 47 50 50
79 74 66 62 62 58 52 51 46 44 44 45 45 44 43 42 43 40 39 38 36 32 30 28 29 27 32 35 27 27 30 31 34 36 37 39 41 42 43 44 46 47 49 48 51 51 51 54 56
85 77 70 68 65 62 55 55 53 48 46 44 44 45 45 42 42 40 39 38 36 33 30 30 33 32 35 32 25 25 27 32 36 38 41 43 45 47 48 50 53 54 54 55 56 56 58 59 62
94 84 72 71 69 66 59 57 56 54 50 47 45 45 42 42 41 41 41 38 35 34 32 34 35 38 36 29 29 25 29 35 37 40 43 45 48 51 54 56 58 60 60 58 59 59 59 65 66
98 90 85 78 74 69 65 61 60 59 57 52 48 47 42 41 40 40 40 38 35 34 35 38 38 39 34 31 29 31 35 37 38 41 44 45 46 49 53 56 57 59 59 59 61 63 66 70 73
89 91 90 86 81 76 74 68 66 63 59 56 53 50 47 43 40 40 39 38 37 38 39 40 40 36 33 33 31 34 39 41 42 44 47 47 52 53 57 59 62 63 63 64 66 70 72 75 78
87 84 88 89 87 82 79 75 70 65 62 58 55 50 47 47 45 43 41 40 42 41 42 42 40 35 35 37 36 40 41 44 47 48 48 52 56 59 60 62 65 65 66 70 72 76 78 80 83
90 86 85 87 89 87 83 78 73 69 62 61 57 54 52 48 46 47 47 46 46 44 44 44 39 38 38 39 43 44 45 48 51 53 56 57 59 62 63 63 64 67 71 74 77 79 82 83 85
95 90 87 85 85 88 83 79 75 72 64 63 60 56 53 51 47 46 47 48 45 46 47 43 42 41 41 42 45 45 50 52 56 59 56 58 64 64 62 64 68 70 75 78 81 83 84 85 84
99 95 89 84 81 84 83 80 76 73 66 63 62 59 54 49 47 46 46 47 48 49 47 44 43 42 41 43 47 50 52 56 58 58 58 63 63 62 65 68 70 73 77 80 84 83 81 83 75
101 100 92 83 79 79 81 77 75 72 67 65 62 60 56 53 50 48 48 48 48 48 47 44 45 43 42 51 53 53 55 61 61 62 61 61 62 63 65 69 74 80 83 85 84 79 71 69 68
101 98 91 82 77 75 75 76 76 72 68 65 63 61 59 56 51 50 50 50 49 48 47 46 45 44 52 54 53 56 58 59 61 61 58 61 65 65 67 73 79 82 83 83 76 68 66 61 51
96 96 92 83 77 73 70 73 73 73 69 66 64 62 61 59 54 52 51 49 48 48 49 46 44 51 53 53 55 59 60 59 59 58 60 63 63 66 71 73 75 82 76 68 63 56 48 39 33
95 94 93 86 78 75 71 71 71 71 68 66 64 62 60 55 54 54 52 50 49 50 48 46 50 54 51 55 59 57 58 57 54 60 62 64 66 69 74 74 73 69 66 58 53 46 34 25 22
99 96 93 88 80 75 72 71 69 66 66 66 63 60 58 54 54 55 53 52 51 49 48 51 53 54 55 58 56 56 54 54 57 59 62 65 69 71 73 73 67 65 55 46 39 28 23 21 18
97 97 91 88 81 78 74 70 66 64 61 60 59 57 56 54 55 56 54 53 51 51 55 53 52 53 58 56 55 55 54 56 58 61 64 65 68 71 72 66 62 54 42 34 29 22 20 22 23
97 95 92 90 85 80 76 70 65 60 57 55 56 55 54 55 57 55 54 52 53 55 53 52 52 52 53 54 53 55 55 58 61 63 63 65 67 71 67 61 58 45 35 30 23 21 24 25 26
99 93 93 90 86 83 79 73 66 60 54 53 52 54 55 56 56 53 53 53 53 54 49 50 50 50 50 51 54 56 59 62 64 65 65 65 67 67 61 61 49 36 33 29 26 27 29 29 32
102 97 95 91 86 83 78 72 68 61 56 53 51 51 51 51 51 51 52 54 52 49 51 49 49 49 50 54 57 60 63 64 65 66 66 67 65 60 59 48 37 32 30 27 28 33 34 35 37
102 99 96 93 88 81 75 69 63 58 53 49 47 46 47 48 48 49 50 49 48 50 50 50 50 52 54 57 60 63 64 65 66 66 67 66 57 57 47 36 32 31 29 30 34 36 38 41 44
99 97 91 86 80 77 74 66 60 54 50 48 46 46 46 45 44 46 48 46 44 44 46 49 51 53 57 59 62 63 65 65 66 67 67 56 56 46 36 32 34 32 33 36 40 42 46 50 53
98 95 91 85 82 80 73 65 60 56 53 51 48 46 46 45 44 46 46 45 43 46 49 51 53 57 60 61 62 63 63 65 68 66 57 55 46 35 31 34 35 36 39 42 47 50 54 58 61
95 94 91 86 82 79 74 67 62 59 56 52 50 48 46 45 45 46 45 45 47 49 51 54 57 59 61 62 62 64 65 68 63 57 51 42 33 31 33 36 40 43 47 50 55 60 62 66 68
94 92 90 86 81 76 71 67 65 62 58 54 52 50 49 47 48 48 49 51 52 53 56 58 61 61 62 62 65 65 67 60 58 46 39 35 36 35 39 45 48 51 54 58 63 65 68 70 74
90 90 87 84 81 75 70 69 67 64 59 56 53 51 49 49 51 53 54 55 56 57 59 61 62 63 63 66 65 66 57 55 44 39 35 36 39 43 49 53 58 61 65 69 70 72 76 78 79
Wind_Direction
247 246 249 251 249 245 242 240 236 239 242 247 249 248 250 249 245 249 258 265 272 278 288 298 302 306 307 303 305 300 301 304 306 308 309 314 323 321 319 313 306 299 293 291 290 291 290 289 287
247 246 246 249 250 244 237 233 237 238 242 249 249 249 250 252 254 253 258 264 272 280 287 296 299 303 302 296 298 300 291 296 300 301 302 303 305 306 303 303 303 302 303 302 295 292 293 292 289
246 246 244 246 248 241 239 233 234 240 244 250 249 245 247 256 258 260 263 267 275 281 287 293 298 298 295 296 293 294 287 289 297 300 300 302 302 302 299 299 299 296 300 299 298 296 293 291 290
244 244 244 244 243 242 241 235 235 240 243 247 248 245 249 253 256 258 263 268 278 284 286 294 296 294 286 295 311 287 284 285 289 294 296 297 299 298 296 294 293 292 296 297 295 295 293 292 289
242 241 241 242 243 242 241 239 237 241 244 244 245 246 250 255 256 259 263 269 275 282 288 290 294 289 299 294 308 299 283 282 286 290 293 293 293 294 297 297 296 296 299 299 297 295 294 293 292
242 240 239 241 242 242 241 242 241 242 245 243 246 249 251 254 256 259 263 268 274 282 284 284 286 295 299 295 302 297 284 282 284 286 287 291 292 291 292 293 295 294 297 296 296 294 297 296 293
239 239 236 235 240 242 241 240 241 243 243 243 245 248 248 253 257 260 264 268 273 278 282 283 287 293 295 305 300 295 288 289 283 285 288 288 290 292 293 293 294 295 296 295 294 291 294 297 293
237 235 233 234 238 240 240 240 240 242 243 242 241 246 249 253 256 259 262 264 268 277 277 278 285 287 297 299 296 287 287 285 285 287 288 289 291 292 293 293 294 294 292 292 291 288 290 296 296
236 233 233 234 236 237 238 242 240 240 239 241 241 242 246 247 252 256 260 263 268 273 274 278 283 290 294 291 294 295 286 281 283 286 288 290 290 292 294 293 293 292 293 291 290 290 294 297 298
235 234 232 232 233 234 236 238 240 238 238 240 243 243 243 246 250 252 254 259 266 268 270 277 282 290 292 285 283 287 286 286 287 289 291 295 298 295 297 297 296 296 294 293 294 295 296 297 299
235 234 232 230 231 233 237 238 240 238 239 240 245 249 246 246 249 252 254 259 265 268 270 277 285 288 284 279 275 288 286 286 286 290 290 294 302 300 298 297 296 296 296 294 295 297 298 299 298
236 234 232 230 230 231 235 237 239 238 237 239 241 244 244 245 248 250 255 259 263 266 269 277 283 281 283 283 279 283 292 294 294 292 291 292 301 299 296 296 298 299 297 296 296 297 299 299 299
232 234 233 230 229 229 232 234 236 236 236 237 239 242 245 248 250 251 256 259 264 266 268 277 279 278 279 281 284 285 289 291 293 294 293 292 298 297 298 297 296 296 296 294 297 298 299 301 302
228 230 231 231 230 228 230 233 235 236 236 236 238 242 246 250 252 254 257 260 264 262 268 273 280 283 281 282 285 286 287 288 293 297 295 295 296 298 299 300 298 296 294 297 299 301 300 302 301
223 226 228 228 229 228 228 231 234 235 235 237 238 241 245 248 252 255 257 259 259 263 268 278 281 283 283 285 290 286 287 292 294 296 294 297 299 298 299 298 297 296 298 300 302 304 304 300 299
219 224 226 226 230 229 229 230 233 236 236 236 239 242 244 246 251 255 255 256 259 264 270 274 281 284 286 286 285 287 291 293 292 296 295 299 300 299 299 300 298 299 300 303 306 304 301 300 296
217 220 226 226 228 231 230 232 234 236 235 236 239 242 245 247 251 256 258 260 263 266 269 275 281 283 284 289 291 292 293 292 294 296 297 296 298 299 302 300 299 302 304 306 304 303 300 300 299
216 215 223 224 227 230 229 231 233 235 236 235 238 241 244 247 251 255 259 262 264 266 269 278 279 280 285 289 288 290 291 293 294 296 297 300 301 300 300 301 304 305 308 306 307 303 302 302 303
214 214 219 223 223 226 228 229 231 233 235 236 237 241 245 250 252 253 257 260 261 266 272 276 276 282 287 285 289 290 291 296 295 295 300 305 303 300 301 305 307 307 309 311 306 300 301 304 310
211 210 214 219 219 222 226 228 229 231 233 237 240 243 246 249 251 252 256 260 263 269 271 273 279 284 285 287 288 291 292 294 298 302 304 305 305 304 307 309 310 313 314 311 308 308 310 313 319
209 210 213 218 219 220 224 228 229 231 233 235 238 240 244 246 250 253 258 262 266 268 270 278 280 281 283 285 291 291 293 296 301 306 308 308 310 309 312 314 316 314 312 312 312 319 325 326 323
206 208 211 215 218 219 222 226 227 229 231 233 237 240 243 246 249 253 258 261 262 267 274 276 280 281 284 287 290 292 295 299 304 306 307 310 313 314 313 314 313 307 306 308 310 317 321 318 315
206 207 209 214 218 219 221 224 227 229 232 235 238 240 242 246 251 255 256 259 264 268 272 276 279 280 282 289 291 295 298 303 304 305 307 310 312 310 310 312 309 302 309 305 310 308 309 307 305
207 208 209 211 215 221 223 226 230 233 234 236 238 241 243 245 248 251 255 259 264 267 271 274 279 284 285 288 295 298 300 302 303 306 307 309 308 307 309 308 303 301 302 295 293 299 302 304 302
205 207 209 211 214 220 223 226 231 234 237 238 240 242 242 244 246 249 253 259 263 265 268 274 280 284 289 294 296 298 302 303 305 305 305 306 304 304 303 299 295 296 294 292 293 294 295 296 298
206 207 210 213 215 220 224 225 229 232 236 239 240 240 240 242 245 249 254 258 262 267 272 277 282 291 293 295 299 303 303 302 303 304 304 303 301 298 295 292 293 289 290 293 295 296 296 296 299
205 207 211 213 213 215 221 224 228 232 236 240 241 243 243 243 246 251 257 262 267 274 279 282 289 292 295 298 301 303 303 303 304 303 302 301 296 293 292 295 293 292 291 293 295 295 296 296 298
204 207 210 212 214 217 218 221 227 231 234 240 243 243 245 249 253 258 263 268 274 279 282 285 291 297 298 300 302 304 305 304 303 303 303 297 296 295 296 296 296 295 294 295 295 297 297 297 298
205 206 207 210 214 216 219 223 228 232 235 239 242 244 247 252 257 262 266 272 277 279 282 288 293 296 299 301 303 304 304 302 304 301 302 303 299 293 296 297 296 297 296 296 296 297 297 297 296
207 207 209 210 213 215 219 223 228 233 236 240 243 246 252 257 261 264 269 273 276 278 284 289 295 297 300 303 302 303 301 301 298 303 304 303 301 298 297 298 298 296 297 299 299 298 297 296 297
Height
10823 10828 10832 10840 10847 10853 10854 10857 10861 10862 10864 10864 10869 10876 10878 10878 10879 10880 10881 10882 10883 10883 10884 10885 10885 10884 10883 10882 10880 10879 10878 10877 10876 10874 10873 10872 10870 10869 10868 10868 10867 10866 10865 10864 10863 10862 10861 10859 10858
10813 10820 10826 10833 10842 10846 10847 10851 10855 10856 10858 10859 10865 10871 10872 10873 10874 10875 10877 10878 10879 10879 10880 10881 10881 10880 10879 10879 10877 10877 10875 10874 10873 10872 10871 10869 10868 10867 10866 10865 10864 10863 10861 10860 10859 10857 10856 10854 10853
10803 10811 10819 10828 10836 10839 10840 10845 10849 10850 10852 10854 10860 10863 10867 10868 10869 10871 10873 10874 10875 10876 10876 10876 10876 10875 10875 10875 10874 10872 10871 10870 10869 10868 10867 10866 10865 10864 10863 10861 10860 10858 10857 10854 10853 10851 10850 10849 10847
10793 10801 10813 10823 10829 10828 10831 10840 10843 10845 10846 10849 10854 10858 10861 10862 10863 10865 10868 10869 10871 10871 10872 10872 10871 10870 10869 10870 10870 10868 10867 10866 10865 10864 10863 10862 10861 10860 10858 10856 10854 10853 10851 10849 10847 10845 10843 10841 10839
10781 10792 10805 10817 10819 10820 10825 10832 10836 10840 10841 10845 10849 10852 10855 10857 10856 10860 10862 10864 10865 10866 10867 10867 10866 10865 10865 10865 10864 10863 10862 10861 10860 10859 10857 10857 10856 10854 10852 10850 10848 10847 10845 10842 10839 10837 10835 10833 10830
10772 10785 10800 10809 10807 10809 10819 10824 10829 10833 10835 10838 10842 10845 10848 10850 10851 10855 10856 10858 10859 10861 10862 10862 10862 10861 10860 10860 10860 10859 10857 10856 10855 10853 10852 10851 10850 10848 10846 10844 10841 10839 10837 10834 10832 10829 10827 10824 10821
10761 10775 10790 10794 10794 10802 10812 10815 10821 10825 10829 10832 10834 10837 10841 10843 10845 10849 10851 10852 10854 10856 10857 10857 10857 10857 10856 10855 10855 10854 10852 10852 10850 10848 10847 10845 10844 10842 10839 10837 10834 10831 10828 10825 10822 10819 10816 10813 10810
10746 10763 10776 10783 10788 10793 10802 10806 10813 10818 10821 10825 10827 10831 10834 10838 10840 10842 10845 10847 10849 10850 10851 10851 10851 10851 10851 10850 10850 10849 10848 10846 10844 10843 10841 10839 10836 10834 10831 10828 10825 10821 10818 10814 10811 10807 10804 10801 10798
10730 10749 10768 10772 10777 10783 10792 10797 10804 10809 10812 10816 10820 10822 10828 10831 10834 10837 10839 10841 10842 10844 10845 10846 10846 10845 10845 10845 10844 10844 10843 10841 10839 10837 10834 10832 10829 10826 10822 10818 10814 10810 10807 10803 10799 10795 10791 10787 10784
10713 10739 10753 10756 10763 10773 10779 10786 10792 10799 10802 10808 10812 10816 10820 10824 10828 10830 10833 10835 10837 10838 10839 10840 10840 10840 10839 10839 10839 10837 10836 10834 10833 10830 10827 10825 10821 10817 10812 10807 10803 10798 10794 10790 10786 10781 10777 10774 10771
10702 10722 10734 10743 10750 10760 10767 10776 10779 10788 10796 10801 10806 10810 10814 10818 10821 10824 10826 10829 10831 10832 10833 10834 10834 10834 10833 10833 10833 10831 10829 10827 10825 10822 10819 10815 10812 10807 10802 10797 10791 10786 10781 10776 10771 10767 10763 10760 10755
10688 10703 10716 10728 10737 10748 10754 10762 10770 10779 10786 10794 10798 10802 10806 10810 10814 10817 10820 10823 10824 10826 10827 10828 10828 10827 10827 10827 10826 10824 10822 10820 10817 10813 10810 10806 10802 10797 10792 10786 10780 10774 10767 10762 10757 10753 10750 10744 10738
10674 10687 10700 10711 10723 10734 10740 10750 10759 10768 10778 10785 10789 10793 10797 10803 10807 10810 10813 10815 10817 10819 10820 10821 10821 10820 10821 10819 10817 10816 10814 10811 10808 10804 10800 10796 10792 10786 10780 10775 10769 10762 10755 10749 10745 10740 10734 10727 10720
10658 10670 10683 10696 10709 10721 10729 10738 10749 10760 10771 10776 10782 10785 10790 10795 10799 10804 10806 10808 10810 10812 10813 10814 10814 10813 10813 10811 10809 10808 10805 10802 10797 10793 10789 10785 10779 10773 10768 10762 10755 10748 10742 10738 10733 10726 10718 10710 10702
10640 10654 10668 10682 10697 10710 10719 10726 10741 10750 10763 10768 10773 10778 10782 10787 10793 10797 10799 10801 10803 10805 10806 10807 10807 10806 10805 10804 10801 10799 10796 10793 10788 10783 10779 10773 10767 10761 10756 10749 10741 10734 10729 10724 10717 10709 10700 10691 10684
10626 10639 10655 10674 10689 10701 10711 10723 10731 10741 10754 10760 10765 10770 10775 10780 10785 10789 10791 10793 10796 10797 10798 10799 10799 10799 10797 10795 10792 10790 10788 10782 10777 10773 10769 10763 10756 10749 10742 10734 10726 10720 10714 10707 10701 10691 10682 10676 10669
10610 10635 10652 10670 10683 10692 10706 10715 10722 10730 10742 10750 10755 10761 10766 10771 10777 10782 10784 10786 10788 10790 10790 10791 10791 10790 10787 10785 10783 10780 10776 10771 10767 10762 10757 10751 10744 10737 10730 10721 10713 10705 10699 10692 10683 10674 10666 10660 10655
10612 10633 10646 10663 10676 10684 10697 10704 10710 10719 10730 10740 10747 10752 10757 10763 10772 10773 10776 10778 10781 10782 10782 10783 10784 10780 10778 10776 10773 10769 10765 10761 10757 10751 10745 10738 10730 10724 10718 10709 10700 10692 10684 10675 10668 10660 10654 10649 10646
10602 10621 10636 10651 10666 10674 10684 10692 10700 10709 10721 10731 10737 10743 10750 10760 10762 10764 10768 10770 10773 10773 10775 10775 10773 10770 10768 10766 10763 10759 10755 10751 10746 10741 10734 10726 10717 10710 10704 10697 10689 10680 10671 10663 10657 10651 10646 10642 10640
10579 10602 10620 10636 10653 10666 10674 10682 10692 10702 10711 10720 10731 10738 10745 10751 10751 10755 10759 10762 10764 10765 10765 10765 10763 10762 10759 10756 10752 10750 10746 10742 10737 10731 10723 10714 10704 10696 10691 10684 10675 10667 10659 10653 10649 10645 10641 10637 10636
10571 10594 10613 10629 10645 10656 10664 10673 10685 10694 10705 10715 10721 10729 10736 10741 10743 10746 10751 10754 10756 10755 10755 10756 10755 10752 10749 10746 10743 10739 10736 10732 10726 10720 10712 10703 10692 10684 10678 10671 10664 10657 10652 10646 10642 10639 10636 10634 10631
10564 10585 10601 10615 10631 10644 10655 10667 10677 10688 10698 10706 10714 10720 10726 10730 10733 10738 10743 10745 10746 10746 10748 10746 10745 10742 10740 10737 10733 10730 10725 10721 10715 10709 10700 10692 10682 10673 10667 10661 10655 10649 10644 10640 10636 10633 10630 10628 10626
10556 10574 10591 10606 10620 10631 10646 10658 10671 10682 10693 10699 10706 10711 10716 10720 10725 10730 10733 10736 10737 10738 10738 10737 10735 10733 10730 10727 10723 10719 10715 10709 10703 10696 10688 10680 10673 10664 10657 10652 10647 10643 10639 10636 10632 10629 10626 10623 10620
10546 10565 10580 10595 10611 10625 10642 10657 10667 10679 10687 10694 10700 10704 10708 10712 10717 10722 10725 10727 10729 10729 10729 10727 10725 10722 10720 10716 10712 10707 10702 10696 10690 10682 10675 10669 10661 10653 10648 10643 10639 10635 10631 10628 10625 10622 10619 10616 10613
10537 10554 10569 10585 10602 10625 10639 10653 10665 10674 10681 10688 10693 10697 10701 10705 10709 10714 10716 10719 10720 10720 10719 10718 10716 10713 10709 10705 10700 10695 10688 10683 10676 10668 10663 10657 10648 10642 10637 10633 10630 10626 10623 10620 10617 10614 10611 10608 10604
10535 10553 10571 10593 10612 10627 10635 10650 10659 10667 10674 10680 10685 10689 10693 10697 10701 10705 10708 10711 10712 10711 10710 10709 10706 10702 10697 10693 10687 10681 10675 10669 10662 10655 10650 10643 10636 10631 10627 10624 10621 10618 10615 10612 10609 10606 10602 10598 10594
10530 10550 10567 10587 10601 10614 10629 10644 10649 10658 10665 10671 10677 10682 10686 10690 10693 10697 10700 10701 10702 10701 10699 10698 10694 10691 10685 10679 10674 10669 10662 10655 10649 10643 10636 10630 10624 10620 10618 10617 10614 10611 10607 10604 10600 10596 10592 10586 10582
10525 10542 10561 10581 10595 10609 10622 10634 10643 10649 10656 10663 10669 10674 10679 10682 10686 10689 10690 10691 10691 10690 10689 10686 10682 10678 10673 10667 10661 10657 10650 10643 10636 10631 10625 10619 10615 10613 10611 10609 10605 10602 10599 10595 10590 10584 10580 10574 10568
10519 10538 10555 10574 10590 10605 10618 10629 10635 10642 10649 10656 10661 10666 10670 10675 10678 10680 10680 10681 10681 10679 10677 10674 10670 10665 10660 10653 10649 10643 10638 10630 10625 10620 10615 10611 10608 10606 10603 10600 10595 10591 10587 10584 10577 10571 10565 10557 10549
10516 10534 10553 10570 10584 10599 10612 10621 10628 10635 10643 10649 10654 10659 10664 10668 10669 10670 10671 10671 10669 10668 10666 10662 10657 10652 10647 10642 10636 10632 10626 10621 10616 10611 10607 10604 10600 10598 10594 10589 10584 10578 10573 10567 10562 10555 10548 10540 10530